Owensboro, KY

7:20 PM CST on December 03, 2016 (GMT -0600)
Owensboro-Daviess County

Weather History for KOWB - December, 2013

Change the Weather History Date:

Tuesday, December 3, 2013

  Actual Average Record
Temperature  
Mean Temperature 48 °F -  
Max Temperature 57 °F 48 °F 76 °F (1982)
Min Temperature 39 °F 32 °F 12 °F (1942)
Degree Days  
Heating Degree Days 17    
Moisture  
Dew Point 47 °F    
Average Humidity 97    
Maximum Humidity 100    
Minimum Humidity 75    
Precipitation  
Precipitation 0.00 in - - ()
Sea Level Pressure  
Sea Level Pressure 29.78 in    
Wind  
Wind Speed 6 mph (SSE)    
Max Wind Speed 14 mph    
Max Gust Speed -    
Visibility 3 miles    
Events Fog , Rain    
Averages and records for this station are not official NWS values.
T = Trace of Precipitation, MM = Missing Value Source: NWS Daily Summary

Daily Weather History Graph

Daily Weather History Graph

Search for Another Location

Airport or City:

Trip Planner

Search our weather history database for the weather conditions in past years. The results will help you decide how hot, cold, wet, or windy it might be!

Date:

Astronomy

Dec. 03, 2013 Rise Set
Actual Time 6:47 AM CST 4:29 PM CST
Civil Twilight 6:18 AM CST 4:58 PM CST
Nautical Twilight 5:45 AM CST 5:31 PM CST
Astronomical Twilight 5:14 AM CST 6:03 PM CST
Moon 7:16 AM CST (12/3) 5:32 PM CST (12/3)
Length of Visible Light 10h 40m
Length of Day
9h 42m
New Moon, 1% of the Moon is Illuminated
Dec 3
New Moon
Dec 9
First Quarter
Dec 17
Full
Dec 25
Last Quarter
Jan 1
New

Hourly Weather History & Observations

Time (CST) Temp. Windchill Dew Point Humidity Pressure Visibility Wind Dir Wind Speed Gust Speed Precip Events Conditions
12:56 AM 43.0 °F 41.3 °F 43.0 °F 100% 29.76 in 4.0 mi SE 3.5 mph - N/A   Clear
1:15 AM 42.8 °F 41.1 °F 42.8 °F 100% 29.76 in 2.5 mi SE 3.5 mph - N/A   Clear
1:56 AM 41.9 °F 38.2 °F 41.9 °F 100% 29.76 in 2.5 mi SE 5.8 mph - N/A   Clear
2:18 AM 42.8 °F 41.1 °F 42.8 °F 100% 29.77 in 1.5 mi SSE 3.5 mph - N/A   Clear
2:27 AM 42.8 °F 41.1 °F 42.8 °F 100% 29.77 in 1.0 mi SE 3.5 mph - N/A   Clear
2:48 AM 42.8 °F - 42.8 °F 100% 29.78 in 0.5 mi Calm Calm - N/A Fog Fog
2:56 AM 41.9 °F 40.0 °F 41.9 °F 100% 29.78 in 0.2 mi SSE 3.5 mph - N/A Fog Fog
3:10 AM 39.2 °F 37.0 °F 39.2 °F 100% 29.78 in 0.2 mi South 3.5 mph - N/A Fog Fog
3:18 AM 41.0 °F 38.0 °F 41.0 °F 100% 29.78 in 0.2 mi SSE 4.6 mph - N/A Fog Fog
3:34 AM 42.8 °F 39.3 °F 42.8 °F 100% 29.77 in 0.8 mi SE 5.8 mph - N/A   Mostly Cloudy
3:39 AM 42.8 °F 38.6 °F 42.8 °F 100% 29.77 in 1.2 mi SSE 6.9 mph - N/A   Mostly Cloudy
3:43 AM 44.6 °F 40.7 °F 44.6 °F 100% 29.77 in 1.5 mi SSE 6.9 mph - N/A   Mostly Cloudy
3:56 AM 43.9 °F 39.9 °F 43.9 °F 100% 29.77 in 1.8 mi SSE 6.9 mph - N/A   Overcast
4:07 AM 44.6 °F 40.2 °F 44.6 °F 100% 29.77 in 1.0 mi SSE 8.1 mph - N/A   Overcast
4:11 AM 44.6 °F 40.2 °F 44.6 °F 100% 29.77 in 0.8 mi SSE 8.1 mph - N/A   Overcast
4:19 AM 44.6 °F 40.7 °F 44.6 °F 100% 29.77 in 0.5 mi SSE 6.9 mph - N/A Fog Fog
4:30 AM 44.6 °F 40.7 °F 44.6 °F 100% 29.77 in 0.2 mi SSE 6.9 mph - 0.00 in Fog , Rain Light Rain
4:56 AM 45.0 °F 40.1 °F 45.0 °F 100% 29.77 in 0.2 mi SSE 9.2 mph - 0.00 in Fog , Rain Light Rain
5:56 AM 46.9 °F - 46.9 °F 100% 29.78 in 0.2 mi SSE 8.1 mph - 0.00 in Fog , Rain Light Rain
6:20 AM 46.4 °F 42.9 °F 46.4 °F 100% 29.78 in 0.2 mi SSE 6.9 mph - 0.00 in Fog , Rain Light Rain
6:36 AM 46.4 °F 43.5 °F 46.4 °F 100% 29.78 in 0.2 mi SSE 5.8 mph - 0.00 in Rain Light Rain
6:56 AM 46.9 °F - 46.9 °F 100% 29.79 in 0.2 mi South 4.6 mph - 0.00 in Rain Light Rain
7:56 AM 47.8 °F - 47.8 °F 100% 29.80 in 0.2 mi South 3.5 mph - 0.00 in Fog , Rain Light Rain
8:21 AM 48.2 °F - 48.2 °F 100% 29.81 in 0.2 mi South 3.5 mph - 0.00 in Fog Fog
8:56 AM 50.0 °F - 50.0 °F 100% 29.83 in 0.5 mi South 5.8 mph - 0.00 in Fog Fog
9:16 AM 50.0 °F - 50.0 °F 100% 29.82 in 0.8 mi SSE 5.8 mph - N/A   Overcast
9:33 AM 51.8 °F - 51.8 °F 100% 29.82 in 1.0 mi SE 5.8 mph - N/A   Overcast
9:56 AM 50.9 °F - 50.9 °F 100% 29.83 in 1.0 mi South 6.9 mph - N/A   Overcast
10:11 AM 51.8 °F - 51.8 °F 100% 29.82 in 1.0 mi SSE 8.1 mph - N/A   Overcast
10:56 AM 52.9 °F - 52.9 °F 100% 29.79 in 2.0 mi SSE 13.8 mph - N/A   Overcast
11:56 AM 54.9 °F - 52.9 °F 93% 29.78 in 4.0 mi SSE 10.4 mph - N/A   Overcast
12:56 PM 56.8 °F - 52.9 °F 87% 29.75 in 5.0 mi South 10.4 mph - N/A   Mostly Cloudy
1:28 PM 57.2 °F - 51.8 °F 82% 29.75 in 7.0 mi South 9.2 mph - N/A   Mostly Cloudy
1:56 PM 57.9 °F - 50.9 °F 77% 29.75 in 7.0 mi SSE 10.4 mph - N/A   Mostly Cloudy
2:56 PM 57.9 °F - 50.0 °F 75% 29.75 in 10.0 mi South 9.2 mph - N/A   Mostly Cloudy
3:56 PM 57.9 °F - 50.9 °F 77% 29.74 in 10.0 mi SSE 5.8 mph - N/A   Mostly Cloudy
4:56 PM 55.9 °F - 50.0 °F 80% 29.75 in 10.0 mi Calm Calm - N/A   Overcast
5:56 PM 54.9 °F - 50.9 °F 86% 29.75 in 10.0 mi SE 4.6 mph - N/A   Overcast
6:56 PM 52.9 °F - 50.9 °F 93% 29.76 in 10.0 mi SSE 8.1 mph - N/A   Scattered Clouds
7:56 PM 52.0 °F - 52.0 °F 100% 29.77 in 8.0 mi South 8.1 mph - N/A   Clear
8:56 PM 50.9 °F - 50.9 °F 100% 29.78 in 7.0 mi SSE 8.1 mph - N/A   Clear
9:56 PM 50.9 °F - 50.9 °F 100% 29.77 in 5.0 mi SSE 9.2 mph - N/A   Clear
10:46 PM 48.2 °F - 48.2 °F 100% 29.77 in 2.0 mi SE 4.6 mph - N/A   Clear
10:56 PM 47.8 °F - 47.8 °F 100% 29.78 in 2.0 mi SE 5.8 mph - N/A   Clear
11:40 PM 48.2 °F - 48.2 °F 100% 29.77 in 1.8 mi SSE 6.9 mph - N/A   Clear
11:56 PM 48.9 °F - 48.9 °F 100% 29.77 in 2.5 mi SSE 6.9 mph - N/A   Partly Cloudy